DW4212 Weather Reports


Display with metric or nautical units.
time (UTC)temp
F
wind
direction
speed
MPH
gust
MPH
rain 1hr
in
rain 24hr
in
rain mn
in
humidity
%
barometer
mb
20260502163925 54 258 0.0 5.0 0.55 4.09 0.82 89 1016.5
20260502162926 54 258 1.0 7.0 0.55 4.09 0.82 88 1016.5
20260502161915 54 258 0.0 9.0 0.55 4.09 0.82 87 1016.6
20260502160929 55 267 2.0 10.0 0.51 4.06 0.81 85 1016.6
20260502151914 59 274 3.0 9.0 0.00 3.54 0.71 85 1016.8
20260502150920 60 257 4.0 8.0 0.00 3.54 0.71 89 1016.9
20260502122911 55 170 0.0 3.0 0.47 3.15 0.63 93 1018.3
20260502120917 56 171 0.0 7.0 0.00 2.68 0.54 93 1018.8
20260502115916 55 165 1.0 7.0 0.00 2.68 0.54 93 1018.9
20260502114926 55 180 0.0 5.0 0.00 2.68 0.54 93 1019.0
20260502113913 55 172 1.0 6.0 0.00 2.68 0.54 93 1019.2
20260502112918 54 178 0.0 3.0 0.04 2.68 0.54 93 1019.4
20260502111926 54 169 1.0 4.0 0.08 2.68 0.54 93 1019.6
20260502110958 54 176 0.0 4.0 0.08 2.68 0.54 93 1019.7
20260502105929 54 176 0.0 4.0 0.12 2.68 0.54 93 1019.8
20260502104917 54 176 0.0 0.0 0.16 2.68 0.54 93 1020.0
20260502103924 54 176 0.0 3.0 0.12 2.64 0.53 93 1020.1
20260502101919 53 176 1.0 6.0 0.08 2.60 0.52 93 1020.3
20260502100924 53 171 1.0 3.0 0.16 2.60 0.52 93 1020.3
20260502090912 53 155 0.0 2.0 1.02 2.44 0.49 92 1020.6
20260502070915 52 96 1.0 7.0 1.10 1.10 0.22 90 1019.4
20260502065916 54 253 1.0 7.0 0.63 0.63 0.13 90 1020.9
20260502064925 54 180 1.0 5.0 0.24 0.24 0.05 90 1020.8
20260502063915 54 166 0.0 5.0 0.08 0.08 0.02 90 1020.7
20260502062917 54 164 1.0 8.0 0.00 0.00 0.00 90 1020.7
20260502061925 54 171 0.0 3.0 0.00 0.00 0.00 90 1020.4
20260502060914 54 171 1.0 4.0 0.00 0.00 0.00 89 1020.2
20260502055915 54 173 0.0 6.0 0.00 0.00 0.00 89 1019.9
20260502054927 54 176 0.0 7.0 0.00 0.00 0.00 89 1019.7
20260502053914 54 180 0.0 7.0 0.00 0.00 0.00 89 1020.1
20260502052916 54 167 0.0 7.0 0.00 0.00 0.00 89 1020.3
20260502051924 54 155 2.0 7.0 0.00 0.00 0.00 89 1020.4
20260502050912 54 163 0.0 7.0 0.00 0.00 0.00 89 1020.1
20260502045914 54 163 0.0 6.0 0.00 0.00 0.00 88 1020.2
20260502044925 55 163 0.0 6.0 0.00 0.00 0.00 88 1020.1
20260502043913 55 153 0.0 4.0 0.00 0.00 0.00 88 1020.0
20260502042930 55 153 0.0 7.0 0.00 0.00 0.00 88 1020.1
20260502041918 55 147 0.0 2.0 0.00 0.00 0.00 88 1020.3
20260502040925 55 176 1.0 5.0 0.00 0.00 0.00 88 1020.3
20260502035925 55 163 0.0 5.0 0.00 0.00 0.00 87 1020.3
20260502034916 55 171 1.0 7.0 0.00 0.00 0.00 87 1020.6
20260502033923 55 183 0.0 4.0 0.00 0.00 0.00 87 1020.5
20260502032925 55 166 0.0 3.0 0.00 0.00 0.00 87 1020.4
20260502031912 55 171 1.0 7.0 0.00 0.00 0.00 87 1020.5
20260502030921 55 177 0.0 5.0 0.00 0.00 0.00 87 1020.4
20260502025926 55 147 1.0 6.0 0.00 0.00 0.00 87 1020.4
20260502024915 55 165 1.0 7.0 0.00 0.00 0.00 86 1020.7
20260502023920 55 163 1.0 8.0 0.00 0.00 0.00 86 1020.7
20260502022922 55 173 1.0 8.0 0.00 0.00 0.00 86 1020.8
20260502021925 56 167 2.0 10.0 0.00 0.00 0.00 86 1020.7
20260502020925 56 169 2.0 11.0 0.00 0.00 0.00 86 1020.7
20260502015927 56 171 1.0 7.0 0.00 0.00 0.00 86 1020.9
20260502014914 56 173 1.0 7.0 0.00 0.00 0.00 86 1020.9
20260502013925 56 159 0.0 4.0 0.00 0.00 0.00 85 1021.0
20260502012924 56 200 0.0 8.0 0.00 0.00 0.00 85 1021.0
20260502011916 56 161 0.0 7.0 0.00 0.00 0.00 85 1021.0
20260502010927 56 208 1.0 7.0 0.00 0.00 0.00 85 1021.1
20260502005929 57 193 2.0 9.0 0.00 0.00 0.00 85 1021.3
20260502004922 57 171 1.0 7.0 0.00 0.00 0.00 84 1021.1
20260502003911 57 178 1.0 6.0 0.00 0.00 0.00 84 1021.3
20260502002914 57 173 2.0 8.0 0.00 0.00 0.00 83 1021.4
20260502001923 57 169 1.0 7.0 0.00 0.00 0.00 83 1021.4
20260502000924 57 171 0.0 7.0 0.00 0.00 0.00 83 1021.5
20260501235926 58 173 0.0 5.0 0.00 0.00 0.00 82 1021.6
20260501234914 58 166 0.0 6.0 0.00 0.00 0.00 82 1021.8
20260501233925 58 166 0.0 6.0 0.00 0.00 0.00 82 1021.8
20260501232912 58 169 1.0 6.0 0.00 0.00 0.00 81 1021.8
20260501231922 59 169 0.0 3.0 0.00 0.00 0.00 81 1021.8
20260501230911 59 169 1.0 8.0 0.00 0.00 0.00 81 1021.8
20260501225914 59 169 1.0 7.0 0.00 0.00 0.00 80 1021.7
20260501224927 59 165 1.0 6.0 0.00 0.00 0.00 80 1021.7
20260501223915 59 163 0.0 6.0 0.00 0.00 0.00 79 1021.7
20260501222919 59 160 0.0 7.0 0.00 0.00 0.00 79 1021.6
20260501221911 59 178 2.0 9.0 0.00 0.00 0.00 79 1021.5
20260501220920 59 149 0.0 4.0 0.00 0.00 0.00 78 1021.5
20260501215922 59 148 0.0 5.0 0.00 0.00 0.00 76 1021.5
20260501214910 59 148 1.0 5.0 0.00 0.00 0.00 74 1021.4
20260501213920 59 163 0.0 9.0 0.00 0.00 0.00 71 1021.4
20260501212923 59 103 0.0 5.0 0.00 0.00 0.00 68 1021.4
20260501211912 59 102 0.0 0.0 0.00 0.00 0.00 65 1021.4
20260501210919 59 102 0.0 2.0 0.00 0.00 0.00 62 1021.3
20260501205926 59 177 0.0 0.0 0.00 0.00 0.00 59 1021.3
20260501204915 60 177 0.0 0.0 0.00 0.00 0.00 56 1020.7
20260501203924 60 177 0.0 0.0 0.00 0.00 0.00 54 1020.6
20260501202921 61 177 0.0 0.0 0.00 0.00 0.00 54 1020.5
20260501201927 61 177 0.0 0.0 0.00 0.00 0.00 51 1020.3
20260501200919 62 176 0.0 0.0 0.00 0.00 0.00 51 1020.3
20260501195922 63 177 0.0 0.0 0.00 0.00 0.00 52 1020.1
20260501194911 64 177 0.0 0.0 0.00 0.00 0.00 50 1020.0
20260501193920 64 177 0.0 0.0 0.00 0.00 0.00 50 1019.9
20260501192927 65 177 0.0 0.0 0.00 0.00 0.00 49 1019.9
20260501191922 66 177 0.0 0.0 0.00 0.00 0.00 48 1019.8
20260501190910 67 177 0.0 0.0 0.00 0.00 0.00 48 1019.9
20260501185917 67 177 0.0 0.0 0.00 0.00 0.00 47 1019.9
20260501184926 67 177 0.0 0.0 0.00 0.00 0.00 46 1019.7
20260501183916 68 177 0.0 0.0 0.00 0.00 0.00 44 1019.7
20260501182919 68 177 0.0 2.0 0.00 0.00 0.00 43 1019.6
20260501181910 68 177 0.0 2.0 0.00 0.00 0.00 42 1019.5
20260501180919 69 177 0.0 1.0 0.00 0.00 0.00 44 1019.4
20260501175922 69 177 0.0 0.0 0.00 0.00 0.00 42 1019.4